ECHOSTAR 23 (42070 NORAD) Tracking and Keplerian Element Data

This shows tracking and keplerian element data for the satellite.

Feedback or suggestion? Click here.




ElementValue
Catalog42070
NameECHOSTAR 23
Epoch Orbit1250
Epoch Day222.80460806
Epoch Year2020
RAAN98.6889
Inclination0.0182
Eccentricity0.0002017
Argument of Perigee41.8754
Mean Anonmoly39.9323
Mean Motion1.0027319
Decay Rate-2.73E-06
L11 42070U 17014A 20222.80460806 -.00000273 00000-0 00000-0 0 9999
L22 42070 0.0182 98.6889 0002017 41.8754 39.9323 1.00273190 12503

Live tracking and technical data element details for ECHOSTAR 23 (NORAD 42070). ECHOSTAR 23 can be tracked NOW for your location showing map with azimuth and elevation plus other details from your city location.

Track the satellite on the map from your city or location and see movement details for azimuth, elevation, latitude, longitude, range, height, and movement on the map or in text.







IsCatalogInMostPopularTable: catalog: 42070, numindb: 479
Update: records affected: 1



GetName: 42070 ECHOSTAR 23

Hit Count: updated at: Mon, 10 Aug 2020 22:25:37 GMT